Content
SEND FEEDBACK

Daily
Averages
Monthly
Summary
United States of America

SULPHUR, LOUISIANA


Home > North America > United States > Louisiana
Elevation: 10 feet     Latitude: 30 13N     Longitude: 093 23W

WEATHER
 
SELECT A DAY
Number of Records: 187,845;   Date Range: 11/22/06 - 8/28/14
 
SHARE

PRINT THIS DATA

[ ← Previous Day ]
WEATHER ALMANAC - MAY 25, 2013
[ Next Day → ]
[ °C ]   °F
Weather ElementAverageHighLow
Temperature78.3 °F86.9 °F (2:35 pm)70 °F (3:55 am)
Dewpoint70.2 °F74.3 °F (11:35 am)67.1 °F (11:55 pm)
Humidity76.7 %94 % (5:55 am)60 % (1:55 pm)
Barometer30.15 in30.19 in (9:55 am)30.11 in (5:55 pm)
Wind Speed5.7 mph16.1 mph (2:35 pm)
Wind Gust18.4 mph (2:55 pm)
Weather ElementAverage
Visibility10 mi
Wind DirectionENE (81.5 °)

Weather ElementTotal
Precipitation0.03 in
Cooling Degree Days13.5 (Base 65)
Growing Degree Days28.5 (Base 50)
Averaged from 71 records on May 25, 2013
WEATHER CONDITIONS BREAKOUT
WIND DIRECTION BREAKOUT
WEATHER BY HOUR - MAY 25, 2013
[ °C ]   °F
Local TimeTemperatureDewpointHumidityBarometerVisibilityWind DirectionWind SpeedGust SpeedPrecipitationEventsConditions
12:35 AM72.1 °F68.0 °F87 %30.14 in10.0 miCalmClear
12:55 AM72.1 °F68.4 °F88 %30.14 in10.0 miCalmClear
1:15 AM71.6 °F68.5 °F90 %30.14 in10.0 miCalmScattered Clouds
1:35 AM71.4 °F68.2 °F89 %30.14 in10.0 miCalmScattered Clouds
1:55 AM72.1 °F67.3 °F85 %30.13 in10.0 miCalmClear
2:15 AM72.7 °F67.5 °F84 %30.13 in10.0 miEast (90°)3.5 mphClear
2:35 AM72.5 °F67.5 °F84 %30.13 in10.0 miCalmClear
2:55 AM70.2 °F67.8 °F92 %30.12 in10.0 miCalmClear
3:15 AM70.5 °F68.4 °F93 %30.12 in10.0 miCalmScattered Clouds
3:35 AM71.1 °F68.4 °F91 %30.13 in10.0 miCalmScattered Clouds
3:55 AM70.0 °F68.0 °F93 %30.13 in10.0 miCalmClear
4:15 AM70.7 °F68.5 °F93 %30.13 in10.0 miCalmMostly Cloudy
4:35 AM71.2 °F68.9 °F92 %30.13 in10.0 miCalmMostly Cloudy
4:55 AM71.4 °F68.9 °F92 %30.13 in10.0 miCalmScattered Clouds
5:15 AM71.6 °F68.9 °F91 %30.13 in10.0 miCalmClear
5:35 AM71.6 °F68.9 °F91 %30.14 in10.0 miCalmMostly Cloudy
5:55 AM70.9 °F69.1 °F94 %30.14 in10.0 miNE (50°)3.5 mphScattered Clouds
6:15 AM71.2 °F69.4 °F94 %30.15 in10.0 miCalmScattered Clouds
6:35 AM72.3 °F68.9 °F89 %30.15 in10.0 miENE (70°)4.6 mphMostly Cloudy
6:55 AM73.4 °F68.0 °F83 %30.16 in10.0 miENE (60°)4.6 mphScattered Clouds
7:15 AM74.3 °F68.0 °F81 %30.16 in10.0 miENE (70°)4.6 mphClear
7:35 AM75.6 °F69.6 °F82 %30.17 in10.0 miENE (70°)4.6 mphClear
7:55 AM77.2 °F70.2 °F79 %30.17 in10.0 miEast (80°)5.8 mphClear
8:15 AM77.7 °F70.5 °F78 %30.18 in10.0 miENE (70°)5.8 mphClear
8:35 AM79.2 °F71.4 °F77 %30.18 in10.0 miENE (60°)6.9 mphClear
8:55 AM81.0 °F72.5 °F75 %30.17 in10.0 miENE (60°)6.9 mphClear
9:15 AM81.1 °F72.9 °F76 %30.18 in10.0 miEast (80°)8.1 mphClear
9:35 AM82.2 °F73.9 °F76 %30.18 in10.0 miEast (90°)8.1 mphClear
9:55 AM82.4 °F73.9 °F75 %30.19 in10.0 miEast (90°)6.9 mphScattered Clouds
10:15 AM83.1 °F73.8 °F73 %30.19 in10.0 miEast (80°)5.8 mphScattered Clouds
10:35 AM82.8 °F73.2 °F73 %30.19 in10.0 miEast (80°)5.8 mphScattered Clouds
10:55 AM83.1 °F73.6 °F73 %30.19 in10.0 miEast (80°)6.9 mphScattered Clouds
11:15 AM83.8 °F73.8 °F72 %30.19 in10.0 miEast (80°)6.9 mphScattered Clouds
11:35 AM84.7 °F74.3 °F71 %30.19 in10.0 miESE (110°)8.1 mphScattered Clouds
11:55 AM84.7 °F73.2 °F68 %30.19 in10.0 miESE (120°)6.9 mphScattered Clouds
12:15 PM86.0 °F73.8 °F67 %30.19 in10.0 miEast (90°)8.1 mphScattered Clouds
12:35 PM84.2 °F72.5 °F68 %30.19 in10.0 miSE (140°)9.2 mphMostly Cloudy
12:55 PM85.3 °F72.0 °F64 %30.18 in10.0 miSE (140°)8.1 mphMostly Cloudy
1:15 PM82.9 °F73.9 °F74 %30.17 in7.0 miESE (120°)8.1 mph0.01 inRainRain
1:35 PM85.3 °F73.4 °F67 %30.17 in10.0 miSE (130°)5.8 mph0.01 inScattered Clouds
1:55 PM86.4 °F71.1 °F60 %30.16 in10.0 miSSE (150°)9.2 mph0.01 inScattered Clouds
2:15 PM86.0 °F70.7 °F60 %30.16 in10.0 miSSE (160°)15.0 mphScattered Clouds
2:35 PM86.9 °F72.1 °F61 %30.16 in10.0 miESE (110°)16.1 mphScattered Clouds
2:55 PM86.0 °F71.8 °F62 %30.15 in10.0 miSE (130°)11.5 mph18.4 mphScattered Clouds
3:15 PM85.1 °F70.5 °F61 %30.15 in10.0 miSSE (150°)10.4 mphClear
3:35 PM85.1 °F71.2 °F63 %30.14 in10.0 miSE (140°)10.4 mphClear
3:55 PM84.6 °F70.9 °F63 %30.14 in10.0 miSSE (150°)10.4 mphScattered Clouds
4:15 PM84.9 °F70.0 °F61 %30.13 in10.0 miSSE (150°)11.5 mphScattered Clouds
4:35 PM84.4 °F70.2 °F62 %30.13 in10.0 miSSE (160°)12.7 mphClear
4:55 PM83.8 °F70.9 °F65 %30.13 in10.0 miSouth (170°)11.5 mph16.1 mphClear
5:15 PM83.3 °F70.9 °F66 %30.13 in10.0 miSouth (170°)10.4 mphClear
5:35 PM83.1 °F71.6 °F68 %30.12 in10.0 miSSE (160°)10.4 mphClear
5:55 PM82.6 °F72.0 °F70 %30.11 in10.0 miSouth (170°)10.4 mphClear
6:15 PM82.4 °F68.7 °F63 %30.11 in10.0 miSouth (170°)11.5 mphScattered Clouds
6:35 PM81.9 °F69.3 °F65 %30.11 in10.0 miSouth (170°)9.2 mphClear
6:55 PM81.5 °F69.3 °F66 %30.11 in10.0 miSSE (160°)9.2 mphClear
7:15 PM81.0 °F70.3 °F70 %30.11 in10.0 miSSE (160°)9.2 mphClear
7:35 PM80.6 °F70.9 °F72 %30.11 in10.0 miSSE (150°)6.9 mphClear
7:55 PM79.7 °F70.9 °F74 %30.12 in10.0 miSSE (150°)4.6 mphClear
8:15 PM79.5 °F70.2 °F73 %30.13 in10.0 miESE (120°)4.6 mphClear
8:35 PM78.8 °F70.3 °F75 %30.13 in10.0 miEast (90°)3.5 mphClear
8:55 PM77.9 °F70.7 °F78 %30.14 in10.0 miENE (60°)5.8 mphScattered Clouds
9:15 PM76.6 °F69.8 °F79 %30.14 in10.0 miNE (40°)8.1 mphMostly Cloudy
9:35 PM75.7 °F68.5 °F78 %30.14 in10.0 miNE (50°)8.1 mphScattered Clouds
9:55 PM75.2 °F68.0 °F78 %30.14 in10.0 miNE (50°)4.6 mphScattered Clouds
10:15 PM74.3 °F67.6 °F80 %30.14 in10.0 miENE (60°)3.5 mphClear
10:35 PM74.1 °F67.6 °F80 %30.13 in10.0 miCalmClear
10:55 PM73.4 °F67.5 °F82 %30.13 in10.0 miCalmClear
11:15 PM73.0 °F67.3 °F82 %30.13 in10.0 miEast (90°)3.5 mphClear
11:35 PM73.4 °F67.3 °F81 %30.12 in10.0 miEast (90°)3.5 mphClear
11:55 PM72.7 °F67.1 °F83 %30.12 in10.0 miEast (100°)3.5 mphClear
Hourly data recorded from KUXL, located miles away from Sulphur, Louisiana







STORIES FROM OUR PARTNERS